Madison, MN

2:28 AM CST on February 26, 2017 (GMT -0600)
Madison-Lac Qui Parle County

Weather History for KDXX - June, 2012

Change the Weather History Date:

Saturday, June 16, 2012

  Actual Average (KAQP) Record (KAQP)
Temperature  
Mean Temperature 72 °F -  
Max Temperature 82 °F 75 °F 91 °F (2003)
Min Temperature 62 °F 53 °F 42 °F (2008)
Cooling Degree Days 7    
Growing Degree Days 22 (Base 50)    
Moisture  
Dew Point 56 °F    
Average Humidity 61    
Maximum Humidity 94    
Minimum Humidity 23    
Precipitation  
Precipitation 0.00 in - - ()
Sea Level Pressure  
Sea Level Pressure 29.92 in    
Wind  
Wind Speed 6 mph (WNW)    
Max Wind Speed 23 mph    
Max Gust Speed 29 mph    
Visibility 10 miles    
Events Rain    
Averages and records for this station are not official NWS values.
T = Trace of Precipitation, MM = Missing Value Source: NWS Daily Summary

Daily Weather History Graph

Daily Weather History Graph

Search for Another Location

Airport or City:

Trip Planner

Search our weather history database for the weather conditions in past years. The results will help you decide how hot, cold, wet, or windy it might be!

Date:

Astronomy

Jun. 16, 2012 Rise Set
Actual Time 5:37 AM CDT 9:13 PM CDT
Civil Twilight 5:00 AM CDT 9:51 PM CDT
Nautical Twilight 4:10 AM CDT 10:40 PM CDT
Astronomical Twilight 3:04 AM CDT 11:46 PM CDT
Moon 3:31 AM CDT (6/16) 6:47 PM CDT (6/16)
Length of Visible Light 16h 51m
Length of Day
15h 36m
Waning Crescent, 8% of the Moon is Illuminated
Jun 16
Waning Crescent
Jun 19
New
Jun 26
First Quarter
Jul 3
Full
Jul 10
Last Quarter

Hourly Weather History & Observations

Time (CDT) Temp. Heat Index Dew Point Humidity Pressure Visibility Wind Dir Wind Speed Gust Speed Precip Events Conditions
12:13 AM 68.0 °F - 60.8 °F 78% 29.98 in 10.0 mi Calm Calm - N/A   Clear
12:33 AM 66.2 °F - 59.0 °F 78% 29.98 in 10.0 mi East 4.6 mph - N/A   Clear
12:54 AM 66.2 °F - 59.0 °F 78% 29.97 in 10.0 mi ESE 3.5 mph - N/A   Clear
1:13 AM 64.4 °F - 60.8 °F 88% 29.97 in 10.0 mi SE 4.6 mph - N/A   Clear
1:33 AM 64.4 °F - 59.0 °F 83% 29.96 in 10.0 mi Calm Calm - N/A   Clear
1:54 AM 66.2 °F - 59.0 °F 78% 29.95 in 10.0 mi Calm Calm - N/A   Clear
2:13 AM 66.2 °F - 59.0 °F 78% 29.95 in 10.0 mi East 3.5 mph - N/A   Clear
2:34 AM 66.2 °F - 60.8 °F 83% 29.95 in 10.0 mi Calm Calm - N/A   Clear
2:54 AM 66.2 °F - 60.8 °F 83% 29.95 in 10.0 mi Calm Calm - N/A   Clear
3:13 AM 66.2 °F - 60.8 °F 83% 29.95 in 10.0 mi Calm Calm - N/A   Clear
3:34 AM 66.2 °F - 60.8 °F 83% 29.95 in 10.0 mi Calm Calm - N/A   Clear
3:53 AM 64.4 °F - 60.8 °F 88% 29.93 in 10.0 mi Calm Calm - N/A   Clear
4:13 AM 64.4 °F - 60.8 °F 88% 29.93 in 10.0 mi ESE 3.5 mph - N/A   Clear
4:34 AM 64.4 °F - 60.8 °F 88% 29.93 in 10.0 mi Calm Calm - N/A   Clear
5:13 AM 62.6 °F - 60.8 °F 94% 29.93 in 10.0 mi West 5.8 mph - N/A   Clear
5:34 AM 64.4 °F - 60.8 °F 88% 29.92 in 10.0 mi WNW 5.8 mph - N/A   Clear
5:53 AM 64.4 °F - 60.8 °F 88% 29.91 in 10.0 mi WNW 3.5 mph - N/A   Clear
6:13 AM 64.4 °F - 60.8 °F 88% 29.90 in 10.0 mi Calm Calm - N/A   Clear
6:34 AM 64.4 °F - 60.8 °F 88% 29.91 in 10.0 mi Calm Calm - N/A   Clear
6:54 AM 66.2 °F - 62.6 °F 88% 29.92 in 10.0 mi Calm Calm - N/A   Clear
7:13 AM 69.8 °F - 62.6 °F 78% 29.92 in 10.0 mi ESE 3.5 mph - N/A   Clear
7:34 AM 71.6 °F - 64.4 °F 78% 29.92 in 10.0 mi Calm Calm - N/A   Clear
7:54 AM 71.6 °F - 64.4 °F 78% 29.92 in 10.0 mi SE 3.5 mph - N/A   Clear
8:13 AM 73.4 °F - 64.4 °F 73% 29.92 in 10.0 mi Calm Calm - N/A   Clear
8:34 AM 73.4 °F - 64.4 °F 73% 29.93 in 10.0 mi Calm Calm - N/A   Clear
8:53 AM 73.4 °F - 64.4 °F 73% 29.92 in 10.0 mi Calm Calm - N/A   Clear
9:13 AM 73.4 °F - 64.4 °F 73% 29.94 in 10.0 mi SW 3.5 mph - N/A   Clear
9:34 AM 73.4 °F - 66.2 °F 78% 29.94 in 10.0 mi WSW 3.5 mph - N/A   Scattered Clouds
9:53 AM 75.2 °F - 64.4 °F 69% 29.94 in 10.0 mi West 4.6 mph - N/A   Clear
10:13 AM 77.0 °F - 62.6 °F 61% 29.94 in 10.0 mi WNW 6.9 mph - N/A   Scattered Clouds
10:34 AM 75.2 °F - 62.6 °F 65% 29.93 in 10.0 mi West 10.4 mph - N/A   Clear
10:53 AM 77.0 °F - 64.4 °F 65% 29.93 in 10.0 mi WNW 9.2 mph - N/A   Clear
11:13 AM 77.0 °F - 64.4 °F 65% 29.92 in 10.0 mi WNW 5.8 mph - N/A   Clear
11:34 AM 77.0 °F - 64.4 °F 65% 29.92 in 10.0 mi WNW 9.2 mph - N/A   Clear
11:53 AM 78.8 °F - 64.4 °F 61% 29.92 in 10.0 mi West 11.5 mph - N/A   Scattered Clouds
12:13 PM 73.4 °F - 64.4 °F 73% 29.93 in 10.0 mi WNW 18.4 mph 26.5 mph N/A Rain Rain
12:34 PM 71.6 °F - 62.6 °F 73% 29.93 in 10.0 mi NNW 16.1 mph 25.3 mph N/A   Mostly Cloudy
12:53 PM 73.4 °F - 62.6 °F 69% 29.94 in 10.0 mi NNW 15.0 mph - N/A   Scattered Clouds
1:13 PM 73.4 °F - 62.6 °F 69% 29.93 in 10.0 mi NW 16.1 mph - N/A   Scattered Clouds
1:34 PM 75.2 °F - 60.8 °F 61% 29.94 in 10.0 mi NW 12.7 mph 19.6 mph N/A   Clear
1:53 PM 77.0 °F - 60.8 °F 57% 29.94 in 10.0 mi NW 15.0 mph 20.7 mph N/A   Clear
2:13 PM 78.8 °F - 57.2 °F 47% 29.93 in 10.0 mi NW 13.8 mph - N/A   Scattered Clouds
2:34 PM 78.8 °F - 57.2 °F 47% 29.92 in 10.0 mi NW 13.8 mph 23.0 mph N/A   Scattered Clouds
2:53 PM 80.6 °F 80.8 °F 57.2 °F 45% 29.91 in 10.0 mi WNW 15.0 mph 23.0 mph N/A   Scattered Clouds
3:13 PM 80.6 °F 80.3 °F 53.6 °F 39% 29.90 in 10.0 mi NW 13.8 mph 24.2 mph N/A   Scattered Clouds
3:34 PM 80.6 °F - 51.8 °F 37% 29.89 in 10.0 mi WNW 17.3 mph 24.2 mph N/A   Clear
3:53 PM 82.4 °F - 46.4 °F 28% 29.89 in 10.0 mi NW 13.8 mph 24.2 mph N/A   Clear
4:13 PM 82.4 °F - 44.6 °F 26% 29.88 in 10.0 mi WNW 16.1 mph 23.0 mph N/A   Clear
4:34 PM 82.4 °F - 42.8 °F 25% 29.88 in 10.0 mi West 17.3 mph 25.3 mph N/A   Clear
4:53 PM 82.4 °F - 42.8 °F 25% 29.88 in 10.0 mi WNW 19.6 mph 26.5 mph N/A   Clear
5:14 PM 82.4 °F - 41.0 °F 23% 29.88 in 10.0 mi NW 15.0 mph 28.8 mph N/A   Clear
5:33 PM 82.4 °F - 42.8 °F 25% 29.88 in 10.0 mi WNW 21.9 mph 28.8 mph N/A   Clear
5:53 PM 80.6 °F - 44.6 °F 28% 29.87 in 10.0 mi WNW 23.0 mph 28.8 mph N/A   Clear
6:14 PM 80.6 °F - 42.8 °F 26% 29.87 in 10.0 mi NW 20.7 mph 27.6 mph N/A   Clear
6:33 PM 80.6 °F - 42.8 °F 26% 29.87 in 10.0 mi WNW 20.7 mph 25.3 mph N/A   Clear
6:53 PM 80.6 °F - 42.8 °F 26% 29.87 in 10.0 mi WNW 17.3 mph - N/A   Clear
7:13 PM 80.6 °F - 42.8 °F 26% 29.87 in 10.0 mi WNW 16.1 mph 23.0 mph N/A   Clear
7:33 PM 78.8 °F - 42.8 °F 28% 29.87 in 10.0 mi WNW 15.0 mph 21.9 mph N/A   Clear
7:54 PM 78.8 °F - 44.6 °F 30% 29.88 in 10.0 mi WNW 11.5 mph - N/A   Clear
8:14 PM 77.0 °F - 42.8 °F 29% 29.88 in 10.0 mi WNW 12.7 mph 18.4 mph N/A   Clear
8:33 PM 75.2 °F - 44.6 °F 34% 29.88 in 10.0 mi WNW 11.5 mph - N/A   Clear
8:54 PM 73.4 °F - 46.4 °F 38% 29.89 in 10.0 mi WNW 6.9 mph - N/A   Clear
9:14 PM 71.6 °F - 48.2 °F 43% 29.89 in 10.0 mi NW 5.8 mph - N/A   Clear
9:33 PM 68.0 °F - 48.2 °F 49% 29.89 in 10.0 mi WNW 5.8 mph - N/A   Clear
9:54 PM 66.2 °F - 48.2 °F 52% 29.90 in 10.0 mi WNW 5.8 mph - N/A   Clear
10:13 PM 66.2 °F - 50.0 °F 56% 29.91 in 10.0 mi West 6.9 mph - N/A   Clear
10:33 PM 64.4 °F - 50.0 °F 59% 29.91 in 10.0 mi West 6.9 mph - N/A   Clear
10:54 PM 64.4 °F - 48.2 °F 56% 29.91 in 10.0 mi West 4.6 mph - N/A   Clear
11:33 PM 62.6 °F - 50.0 °F 63% 29.91 in 10.0 mi West 5.8 mph - N/A   Clear